Regional Weather Roundup
Issued by NWS

Home | Current Version | Previous Version | Graphics & Text | Print | Product List | Glossary On
Versions: 1 2 3 4 5 6 7 8 9 10 11 12 13 14 15 16 17 18 19 20 21 22 23 24 25 26 27 28 29 30 31 32 33 34 35 36 37 38 39 40 41 42 43 44 45 46 47 48 49 50
000
ASUS43 KMPX 272301
RWRMN
WEATHER ROUNDUP FOR MINNESOTA
NATIONAL WEATHER SERVICE TWIN CITIES/CHANHASSEN MN
600 PM CDT TUE JUN 27 2017


NOTE: "FAIR" INDICATES FEW OR NO CLOUDS BELOW 12,000 FEET WITH NO
SIGNIFICANT WEATHER AND/OR OBSTRUCTIONS TO VISIBILITY. N/A MEANS
CURRENT SKY AND/OR WEATHER CONDITIONS ARE NOT AVAILABLE.

MNZ060>063-068>070-280000-
   Twin Cities Metro

CITY           SKY/WX    TMP DP  RH WIND       PRES   REMARKS
TWIN CITIES    PTSUNNY   76  41  28 S18       29.87F
ST PAUL        PTSUNNY   75  43  31 S15       29.87F
CRYSTAL        MOSUNNY   75  42  30 SE16G23   29.85F
BLAINE         MOSUNNY   77  43  29 S13G22    29.86F
LAKEVILLE      MOSUNNY   72  45  37 S10G16    29.87
EDEN PRAIRIE   CLOUDY    77  45  32 S13       29.85F
SOUTH ST PAUL  PTSUNNY   74  41  30 S9G16     29.87F
LAKE ELMO      FAIR      75  45  33 S15G21    29.89F
$$
MNZ001>005-007-008-013>017-022>024-027-028-280000-
   Northwest Minnesota

CITY           SKY/WX    TMP DP  RH WIND       PRES   REMARKS
BEMIDJI        SUNNY     74  44  33 S15G22    29.78F
HALLOCK        SUNNY     77  43  29 S17G25    29.67S
ROSEAU         MOSUNNY   77  54  44 S12G21    29.72F
WARROAD        CLOUDY    75  52  43 S13       29.74F
CROOKSTON      SUNNY     77  45  31 S18G29    29.70F
FOSSTON        SUNNY     73  45  35 S16G22    29.76F
DETROIT LAKES  CLOUDY    72  43  35 S15       29.78S
MOORHEAD       PTSUNNY   75  45  33 S20G28    29.71F
PARK RAPIDS    SUNNY     76  41  28 S21G28    29.79S
MAHNOMEN       FAIR      73  45  36 S15G22    29.75F
$$
MNZ006-009>011-018-025>026-280000-
   North Central Minnesota

CITY           SKY/WX    TMP DP  RH WIND       PRES   REMARKS
BAUDETTE       PTSUNNY   71  47  42 S8        29.77F
FLAG ISLAND    CLOUDY    72  55  56 S8        29.74F
INTL FALLS     PTSUNNY   71  45  39 SW8       29.78F
WASKISH        MOSUNNY   73  48  40 S5        29.78S
BIG FORK       MOSUNNY   73  46  38 SW9G16    29.81S
LONGVILLE      SUNNY     73  43  33 S13G18    29.81F
GRAND RAPIDS   SUNNY     72  44  36 S12G17    29.84F
CRANE LAKE     CLOUDY    73  41  31 S9        29.82F
ORR            CLOUDY    72  43  35 S7        29.79F
COOK           CLOUDY    72  46  40 S5        29.83S
WALKER         FAIR      73  44  36 S9G20     29.79F
$$
MNZ012-019>021-037-280000-
   Northeast Minnesota

CITY           SKY/WX    TMP DP  RH WIND       PRES   REMARKS
DULUTH         CLOUDY    72  45  37 SW16      29.85F
ELY            SUNNY     72  43  35 SW12      29.83F
HIBBING        CLOUDY    71  42  35 S9        29.83F
EVELETH        MOSUNNY   73  32  22 S14G21    29.84F
DULUTH HARBOR  CLOUDY    75  48  38 SW14      29.83F
TWO HARBORS    CLOUDY    73  52  46 SW10      29.83F
SILVER BAY     MOSUNNY   73  46  38 S14       29.83F
GRAND MARAIS     N/A     51  44  77 SW5       29.85F
G MARAIS ARPRT PTSUNNY   64  39  39 S12G17    29.88F
$$
MNZ029>031-032-039>041-046>048-054>057-064-280000-
   West Central Minnesota

CITY           SKY/WX    TMP DP  RH WIND       PRES   REMARKS
FERGUS FALLS   CLOUDY    70  48  46 S10       29.72F
WHEATON        CLOUDY    75  46  35 SE23G29   29.70F THUNDER
MORRIS         TSTM      72  48  43 S5        29.82R
ALEXANDRIA     CLOUDY    70  44  39 S15G23    29.81F
ELBOW LAKE     PTSUNNY   69  48  46 S15       29.74F
WADENA         SUNNY     73  45  35 S15G24    29.79F
GLENWOOD       MOSUNNY   70  45  40 S10G17    29.82S THUNDER
APPLETON       CLOUDY    77  43  29 S13       29.76F THUNDER
BENSON         LGT RAIN  70  48  46 S14       29.79S
ORTONVILLE     CLOUDY    75  46  35 SE13G23   29.74F
MADISON        CLOUDY    81  43  26 S22G28    29.75F
WILLMAR        FAIR      75  45  33 SE13G18   29.82F
$$
MNZ033>034-036-042>043-049>051-058-059-280000-
   Central Minnesota

CITY           SKY/WX    TMP DP  RH WIND       PRES   REMARKS
ST CLOUD       SUNNY     75  44  33 S16G24    29.82F
SAUK CENTRE    FAIR      72  44  36 SE14G20   29.80F
PAYNESVILLE    CLOUDY    73  41  31 S10G17    29.83F
AITKIN         SUNNY     72  45  37 S17G24    29.82F
PINE RIVER     SUNNY     73  46  38 S15       29.84F
BRAINERD       SUNNY     73  42  32 S15       29.82F
STAPLES        SUNNY     73  37  27 S18G29    29.81S
LONG PRAIRIE   FAIR      72  45  37 SE14      29.81F
LITTLE FALLS   SUNNY     73  37  27 S13G26    29.83F
LITCHFIELD     CLOUDY    73  46  38 S8G16     29.84F
BUFFALO        PTSUNNY   74  40  29 SE12      29.85F
MAPLE LAKE     PTSUNNY   74  46  36 S10G16    29.85F
HUTCHINSON     SUNNY     74  46  37 S9        29.85F
$$
MNZ037-044-045-052-053-280000-
   East Central Minnesota

CITY           SKY/WX    TMP DP  RH WIND       PRES   REMARKS
PRINCETON      SUNNY     77  43  29 S12G18    29.86F
MORA           SUNNY     73  41  31 S15G22    29.88F
CAMBRIDGE      MOSUNNY   77  52  41 S16G24    29.84F
RUSH CITY      PTSUNNY   73  43  33 S9G16     29.87F
MOOSE LAKE     SUNNY     72  43  35 SW12G17   29.84F
HINCKLEY       FAIR      73  46  38 S14G20    29.86F
CLOQUET        CLOUDY    72  37  28 S12G21    29.86S
MCGREGOR       SUNNY     72  43  35 S9G22     29.84F
$$
MNZ071>073-080-081-089-090-097-098-280000-
   Southwest Minnesota

CITY           SKY/WX    TMP DP  RH WIND       PRES   REMARKS
MONTEVIDEO     CLOUDY    77  45  31 S12G22    29.79S THUNDER
GRANITE FALLS  MOSUNNY   79  44  28 S18G25    29.80S
CANBY          MOSUNNY   80  42  25 S16G23    29.76F
MARSHALL       SUNNY     79  44  28 S23G31    29.78F
REDWOOD FALLS  PTSUNNY   80  40  23 S23G30    29.79F
OLIVIA         CLOUDY    73  43  33 S15G23    29.81S
PIPESTONE      SUNNY     79  48  34 S24       29.79F
WINDOM         SUNNY     77  41  27 SE20G30   29.81F
JACKSON        SUNNY     77  43  29 S15G25    29.84F
TRACY          SUNNY     79  44  29 S22G30    29.79F
SLAYTON        SUNNY     78  43  28 S21G29    29.82F
$$
MNZ065>067-074>077-082>085-091>093-280000-
   South Central Minnesota

CITY           SKY/WX    TMP DP  RH WIND       PRES   REMARKS
MANKATO        CLOUDY    74  43  32 S14G20    29.85F
NEW ULM        CLOUDY    75  43  31 S16G25    29.82F
ST JAMES       CLOUDY    77  43  29 SE21G28   29.83F
FAIRMONT       MOSUNNY   76  47  35 S21G26    29.85F
GLENCOE        CLOUDY    75  46  35 S8G17     29.84F
FARIBAULT      CLOUDY    75  43  31 SE18G26   29.88F
OWATONNA       CLOUDY    73  45  35 S12G22    29.89F
WASECA         CLOUDY    72  41  33 S14       29.89F
ALBERT LEA     CLOUDY    73  39  29 S13G21    29.90F
$$
MNZ078>079-086>088-094>096-280000-
   Southeast Minnesota

CITY           SKY/WX    TMP DP  RH WIND       PRES   REMARKS
ROCHESTER      PTSUNNY   72  42  34 S17       29.94F
RED WING       MOSUNNY   75  41  29 S6        29.89F
STANTON        PTSUNNY   75  41  30 S10G17    29.88F
DODGE CENTER   CLOUDY    73  39  29 S16       29.92F
WINONA         MOSUNNY   73  45  35 SW9       29.94F
AUSTIN         CLOUDY    72  43  35 S12       29.93F
PRESTON        MOSUNNY   72  42  34 S15       29.95F
$$
ABBREVIATIONS USED IN REMARKS
   TC - TEMPERATURES IN CELSIUS
  WCI - WIND CHILL INDEX
   HX - HEAT INDEX
  VSB - VISIBILITY
$$



USA.gov is the U.S. government's official web portal to all federal, state and local government web resources and services.